Year,Month,Day,Hour,Minute,Value (Times are PST for temperature in C)
2018,09,06,00,00,12.10
2018,09,06,00,01,12.10
2018,09,06,00,02,12.10
2018,09,06,00,03,12.10
2018,09,06,00,04,12.10
2018,09,06,00,05,12.10
2018,09,06,00,06,12.10
2018,09,06,00,07,12.10
2018,09,06,00,08,12.10
2018,09,06,00,09,12.10
2018,09,06,00,10,12.10
2018,09,06,00,11,12.10
2018,09,06,00,12,12.10
2018,09,06,00,13,12.10
2018,09,06,00,14,12.10
2018,09,06,00,15,12.10
2018,09,06,00,16,12.10
2018,09,06,00,17,12.10
2018,09,06,00,18,12.10
2018,09,06,00,19,12.10
2018,09,06,00,20,12.10
2018,09,06,00,21,12.10
2018,09,06,00,22,12.10
2018,09,06,00,23,12.10
2018,09,06,00,24,12.10
2018,09,06,00,25,12.10
2018,09,06,00,26,12.10
2018,09,06,00,27,12.10
2018,09,06,00,28,12.10
2018,09,06,00,29,12.10
2018,09,06,00,30,12.10
2018,09,06,00,31,12.10
2018,09,06,00,32,12.10
2018,09,06,00,33,12.10
2018,09,06,00,34,12.10
2018,09,06,00,35,12.10
2018,09,06,00,36,12.10
2018,09,06,00,37,12.10
2018,09,06,00,38,12.00
2018,09,06,00,39,12.00
2018,09,06,00,40,12.00
2018,09,06,00,41,12.00
2018,09,06,00,42,12.00
2018,09,06,00,43,11.90
2018,09,06,00,44,11.90
2018,09,06,00,45,11.90
2018,09,06,00,46,11.90
2018,09,06,00,47,11.90
2018,09,06,00,48,11.90
2018,09,06,00,49,11.90
2018,09,06,00,50,11.80
2018,09,06,00,51,11.80
2018,09,06,00,52,11.80
2018,09,06,00,53,11.80
2018,09,06,00,54,11.80
2018,09,06,00,55,11.80
2018,09,06,00,56,11.80
2018,09,06,00,57,11.80
2018,09,06,00,58,11.80
2018,09,06,00,59,11.80
2018,09,06,01,00,11.80
2018,09,06,01,01,11.70
2018,09,06,01,02,11.70
2018,09,06,01,03,11.70
2018,09,06,01,04,11.70
2018,09,06,01,05,11.70
2018,09,06,01,06,11.70
2018,09,06,01,07,11.70
2018,09,06,01,08,11.70
2018,09,06,01,09,11.70
2018,09,06,01,10,11.70
2018,09,06,01,11,11.70
2018,09,06,01,12,11.60
2018,09,06,01,13,11.60
2018,09,06,01,14,11.60
2018,09,06,01,15,11.60
2018,09,06,01,16,11.60
2018,09,06,01,17,11.60
2018,09,06,01,18,11.60
2018,09,06,01,19,11.60
2018,09,06,01,20,11.60
2018,09,06,01,21,11.50
2018,09,06,01,22,11.50
2018,09,06,01,23,11.50
2018,09,06,01,24,11.50
2018,09,06,01,25,11.50
2018,09,06,01,26,11.50
2018,09,06,01,27,11.50
2018,09,06,01,28,11.50
2018,09,06,01,29,11.50
2018,09,06,01,30,11.50
2018,09,06,01,31,11.40
2018,09,06,01,32,11.40
2018,09,06,01,33,11.40
2018,09,06,01,34,11.40
2018,09,06,01,35,11.40
2018,09,06,01,36,11.40
2018,09,06,01,37,11.40
2018,09,06,01,38,11.40
2018,09,06,01,39,11.40
2018,09,06,01,40,11.40
2018,09,06,01,41,11.40
2018,09,06,01,42,11.30
2018,09,06,01,43,11.30
2018,09,06,01,44,11.30
2018,09,06,01,45,11.30
2018,09,06,01,46,11.30
2018,09,06,01,47,11.30
2018,09,06,01,48,11.30
2018,09,06,01,49,11.30
2018,09,06,01,50,11.30
2018,09,06,01,51,11.30
2018,09,06,01,52,11.30
2018,09,06,01,53,11.30
2018,09,06,01,54,11.30
2018,09,06,01,55,11.30
2018,09,06,01,56,11.30
2018,09,06,01,57,11.30
2018,09,06,01,58,11.20
2018,09,06,01,59,11.20
2018,09,06,02,00,11.20
2018,09,06,02,01,11.20
2018,09,06,02,02,11.20
2018,09,06,02,03,11.20
2018,09,06,02,04,11.20
2018,09,06,02,05,11.20
2018,09,06,02,06,11.20
2018,09,06,02,07,11.20
2018,09,06,02,08,11.20
2018,09,06,02,09,11.20
2018,09,06,02,10,11.20
2018,09,06,02,11,11.20
2018,09,06,02,12,11.20
2018,09,06,02,13,11.10
2018,09,06,02,14,11.10
2018,09,06,02,15,11.10
2018,09,06,02,16,11.10
2018,09,06,02,17,11.10
2018,09,06,02,18,11.10
2018,09,06,02,19,11.10
2018,09,06,02,20,11.10
2018,09,06,02,21,11.20
2018,09,06,02,22,11.20
2018,09,06,02,23,11.20
2018,09,06,02,24,11.20
2018,09,06,02,25,11.10
2018,09,06,02,26,11.10
2018,09,06,02,27,11.10
2018,09,06,02,28,11.10
2018,09,06,02,29,11.10
2018,09,06,02,30,11.10
2018,09,06,02,31,11.00
2018,09,06,02,32,11.00
2018,09,06,02,33,10.90
2018,09,06,02,34,10.90
2018,09,06,02,35,10.90
2018,09,06,02,36,10.90
2018,09,06,02,37,10.90
2018,09,06,02,38,10.90
2018,09,06,02,39,10.80
2018,09,06,02,40,10.80
2018,09,06,02,41,10.80
2018,09,06,02,42,10.80
2018,09,06,02,43,10.80
2018,09,06,02,44,10.70
2018,09,06,02,45,10.70
2018,09,06,02,46,10.70
2018,09,06,02,47,10.70
2018,09,06,02,48,10.70
2018,09,06,02,49,10.70
2018,09,06,02,50,10.70
2018,09,06,02,51,10.70
2018,09,06,02,52,10.70
2018,09,06,02,53,10.70
2018,09,06,02,54,10.70
2018,09,06,02,55,10.70
2018,09,06,02,56,10.70
2018,09,06,02,57,10.70
2018,09,06,02,58,10.70
2018,09,06,02,59,10.70
2018,09,06,03,00,10.70
2018,09,06,03,01,10.70
2018,09,06,03,02,10.70
2018,09,06,03,03,10.70
2018,09,06,03,04,10.70
2018,09,06,03,05,10.70
2018,09,06,03,06,10.70
2018,09,06,03,07,10.70
2018,09,06,03,08,10.70
2018,09,06,03,09,10.70
2018,09,06,03,10,10.70
2018,09,06,03,11,10.70
2018,09,06,03,12,10.70
2018,09,06,03,13,10.70
2018,09,06,03,14,10.70
2018,09,06,03,15,10.70
2018,09,06,03,16,10.70
2018,09,06,03,17,10.70
2018,09,06,03,18,10.70
2018,09,06,03,19,10.70
2018,09,06,03,20,10.70
2018,09,06,03,21,10.70
2018,09,06,03,22,10.70
2018,09,06,03,23,10.70
2018,09,06,03,24,10.70
2018,09,06,03,25,10.60
2018,09,06,03,26,10.60
2018,09,06,03,27,10.60
2018,09,06,03,28,10.60
2018,09,06,03,29,10.60
2018,09,06,03,30,10.60
2018,09,06,03,31,10.60
2018,09,06,03,32,10.60
2018,09,06,03,33,10.60
2018,09,06,03,34,10.60
2018,09,06,03,35,10.60
2018,09,06,03,36,10.60
2018,09,06,03,37,10.60
2018,09,06,03,38,10.60
2018,09,06,03,39,10.60
2018,09,06,03,40,10.60
2018,09,06,03,41,10.60
2018,09,06,03,42,10.60
2018,09,06,03,43,10.60
2018,09,06,03,44,10.60
2018,09,06,03,45,10.60
2018,09,06,03,46,10.60
2018,09,06,03,47,10.60
2018,09,06,03,48,10.60
2018,09,06,03,49,10.60
2018,09,06,03,50,10.60
2018,09,06,03,51,10.60
2018,09,06,03,52,10.60
2018,09,06,03,53,10.60
2018,09,06,03,54,10.60
2018,09,06,03,55,10.60
2018,09,06,03,56,10.60
2018,09,06,03,57,10.60
2018,09,06,03,58,10.60
2018,09,06,03,59,10.70
2018,09,06,04,00,10.70
2018,09,06,04,01,10.70
2018,09,06,04,02,10.70
2018,09,06,04,03,10.70
2018,09,06,04,04,10.70
2018,09,06,04,05,10.70
2018,09,06,04,06,10.80
2018,09,06,04,07,10.80
2018,09,06,04,08,10.80
2018,09,06,04,09,10.80
2018,09,06,04,10,10.80
2018,09,06,04,11,10.80
2018,09,06,04,12,10.80
2018,09,06,04,13,10.80
2018,09,06,04,14,10.80
2018,09,06,04,15,10.80
2018,09,06,04,16,10.80
2018,09,06,04,17,10.80
2018,09,06,04,18,10.90
2018,09,06,04,19,10.90
2018,09,06,04,20,10.90
2018,09,06,04,21,10.90
2018,09,06,04,22,10.90
2018,09,06,04,23,10.90
2018,09,06,04,24,10.90
2018,09,06,04,25,10.90
2018,09,06,04,26,10.90
2018,09,06,04,27,10.90
2018,09,06,04,28,10.90
2018,09,06,04,29,10.90
2018,09,06,04,30,10.90
2018,09,06,04,31,10.90
2018,09,06,04,32,10.90
2018,09,06,04,33,10.90
2018,09,06,04,34,10.90
2018,09,06,04,35,10.90
2018,09,06,04,36,10.90
2018,09,06,04,37,10.90
2018,09,06,04,38,10.80
2018,09,06,04,39,10.80
2018,09,06,04,40,10.80
2018,09,06,04,41,10.80
2018,09,06,04,42,10.80
2018,09,06,04,43,10.80
2018,09,06,04,44,10.80
2018,09,06,04,45,10.80
2018,09,06,04,46,10.80
2018,09,06,04,47,10.80
2018,09,06,04,48,10.80
2018,09,06,04,49,10.80
2018,09,06,04,50,10.80
2018,09,06,04,51,10.80
2018,09,06,04,52,10.70
2018,09,06,04,53,10.70
2018,09,06,04,54,10.70
2018,09,06,04,55,10.70
2018,09,06,04,56,10.70
2018,09,06,04,57,10.70
2018,09,06,04,58,10.70
2018,09,06,04,59,10.70
2018,09,06,05,00,10.70
2018,09,06,05,01,10.70
2018,09,06,05,02,10.60
2018,09,06,05,03,10.60
2018,09,06,05,04,10.60
2018,09,06,05,05,10.60
2018,09,06,05,06,10.60
2018,09,06,05,07,10.60
2018,09,06,05,08,10.60
2018,09,06,05,09,10.60
2018,09,06,05,10,10.60
2018,09,06,05,11,10.50
2018,09,06,05,12,10.50
2018,09,06,05,13,10.50
2018,09,06,05,14,10.50
2018,09,06,05,15,10.50
2018,09,06,05,16,10.50
2018,09,06,05,17,10.50
2018,09,06,05,18,10.50
2018,09,06,05,19,10.50
2018,09,06,05,20,10.40
2018,09,06,05,21,10.40
2018,09,06,05,22,10.40
2018,09,06,05,23,10.40
2018,09,06,05,24,10.40
2018,09,06,05,25,10.40
2018,09,06,05,26,10.40
2018,09,06,05,27,10.30
2018,09,06,05,28,10.30
2018,09,06,05,29,10.30
2018,09,06,05,30,10.30
2018,09,06,05,31,10.30
2018,09,06,05,32,10.30
2018,09,06,05,33,10.30
2018,09,06,05,34,10.30
2018,09,06,05,35,10.20
2018,09,06,05,36,10.20
2018,09,06,05,37,10.20
2018,09,06,05,38,10.20
2018,09,06,05,39,10.20
2018,09,06,05,40,10.20
2018,09,06,05,41,10.20
2018,09,06,05,42,10.20
2018,09,06,05,43,10.30
2018,09,06,05,44,10.30
2018,09,06,05,45,10.30
2018,09,06,05,46,10.30
2018,09,06,05,47,10.30
2018,09,06,05,48,10.30
2018,09,06,05,49,10.30
2018,09,06,05,50,10.30
2018,09,06,05,51,10.30
2018,09,06,05,52,10.30
2018,09,06,05,53,10.30
2018,09,06,05,54,10.30
2018,09,06,05,55,10.30
2018,09,06,05,56,10.30
2018,09,06,05,57,10.30
2018,09,06,05,58,10.30
2018,09,06,05,59,10.30
2018,09,06,06,00,10.30
2018,09,06,06,01,10.20
2018,09,06,06,02,10.20
2018,09,06,06,03,10.20
2018,09,06,06,04,10.20
2018,09,06,06,05,10.20
2018,09,06,06,06,10.20
2018,09,06,06,07,10.20
2018,09,06,06,08,10.20
2018,09,06,06,09,10.20
2018,09,06,06,10,10.20
2018,09,06,06,11,10.20
2018,09,06,06,12,10.20
2018,09,06,06,13,10.20
2018,09,06,06,14,10.20
2018,09,06,06,15,10.20
2018,09,06,06,16,10.20
2018,09,06,06,17,10.20
2018,09,06,06,18,10.10
2018,09,06,06,19,10.10
2018,09,06,06,20,10.10
2018,09,06,06,21,10.10
2018,09,06,06,22,10.10
2018,09,06,06,23,10.10
2018,09,06,06,24,10.10
2018,09,06,06,25,10.10
2018,09,06,06,26,10.10
2018,09,06,06,27,10.10
2018,09,06,06,28,10.10
2018,09,06,06,29,10.00
2018,09,06,06,30,10.00
2018,09,06,06,31,10.00
2018,09,06,06,32,10.00
2018,09,06,06,33,9.90
2018,09,06,06,34,9.90
2018,09,06,06,35,9.90
2018,09,06,06,36,9.90
2018,09,06,06,37,9.90
2018,09,06,06,38,9.80
2018,09,06,06,39,9.80
2018,09,06,06,40,9.80
2018,09,06,06,41,9.80
2018,09,06,06,42,9.80
2018,09,06,06,43,9.80
2018,09,06,06,44,9.80
2018,09,06,06,45,9.80
2018,09,06,06,46,9.80
2018,09,06,06,47,9.80
2018,09,06,06,48,9.80
2018,09,06,06,49,9.70
2018,09,06,06,50,9.70
2018,09,06,06,51,9.70
2018,09,06,06,52,9.70
2018,09,06,06,53,9.70
2018,09,06,06,54,9.70
2018,09,06,06,55,9.70
2018,09,06,06,56,9.70
2018,09,06,06,57,9.70
2018,09,06,06,58,9.70
2018,09,06,06,59,9.70
2018,09,06,07,00,9.70
2018,09,06,07,01,9.70
2018,09,06,07,02,9.70
2018,09,06,07,03,9.70
2018,09,06,07,04,9.70
2018,09,06,07,05,9.70
2018,09,06,07,06,9.70
2018,09,06,07,07,9.70
2018,09,06,07,08,9.80
2018,09,06,07,09,9.80
2018,09,06,07,10,9.80
2018,09,06,07,11,9.80
2018,09,06,07,12,9.80
2018,09,06,07,13,9.80
2018,09,06,07,14,9.80
2018,09,06,07,15,9.80
2018,09,06,07,16,9.80
2018,09,06,07,17,9.80
2018,09,06,07,18,9.80
2018,09,06,07,19,9.80
2018,09,06,07,20,9.80
2018,09,06,07,21,9.80
2018,09,06,07,22,9.80
2018,09,06,07,23,9.90
2018,09,06,07,24,9.90
2018,09,06,07,25,9.90
2018,09,06,07,26,10.00
2018,09,06,07,27,10.00
2018,09,06,07,28,10.10
2018,09,06,07,29,10.10
2018,09,06,07,30,10.20
2018,09,06,07,31,10.20
2018,09,06,07,32,10.20
2018,09,06,07,33,10.30
2018,09,06,07,34,10.30
2018,09,06,07,35,10.40
2018,09,06,07,36,10.40
2018,09,06,07,37,10.50
2018,09,06,07,38,10.60
2018,09,06,07,39,10.60
2018,09,06,07,40,10.70
2018,09,06,07,41,10.80
2018,09,06,07,42,10.80
2018,09,06,07,43,10.90
2018,09,06,07,44,11.00
2018,09,06,07,45,11.10
2018,09,06,07,46,11.10
2018,09,06,07,47,11.20
2018,09,06,07,48,11.30
2018,09,06,07,49,11.40
2018,09,06,07,50,11.50
2018,09,06,07,51,11.60
2018,09,06,07,52,11.70
2018,09,06,07,53,11.80
2018,09,06,07,54,12.00
2018,09,06,07,55,12.10
2018,09,06,07,56,12.20
2018,09,06,07,57,12.30
2018,09,06,07,58,12.30
2018,09,06,07,59,12.40
2018,09,06,08,00,12.40
2018,09,06,08,01,12.50
2018,09,06,08,02,12.60
2018,09,06,08,03,12.60
2018,09,06,08,04,12.70
2018,09,06,08,05,12.70
2018,09,06,08,06,12.80
2018,09,06,08,07,12.80
2018,09,06,08,08,12.90
2018,09,06,08,09,12.90
2018,09,06,08,10,13.00
2018,09,06,08,11,13.10
2018,09,06,08,12,13.10
2018,09,06,08,13,13.20
2018,09,06,08,14,13.30
2018,09,06,08,15,13.30
2018,09,06,08,16,13.40
2018,09,06,08,17,13.50
2018,09,06,08,18,13.60
2018,09,06,08,19,13.70
2018,09,06,08,20,13.80
2018,09,06,08,21,14.00
2018,09,06,08,22,14.10
2018,09,06,08,23,14.20
2018,09,06,08,24,14.40
2018,09,06,08,25,14.60
2018,09,06,08,26,14.80
2018,09,06,08,27,15.00
2018,09,06,08,28,15.20
2018,09,06,08,29,15.30
2018,09,06,08,30,15.50
2018,09,06,08,31,15.70
2018,09,06,08,32,15.90
2018,09,06,08,33,16.10
2018,09,06,08,34,16.30
2018,09,06,08,35,16.50
2018,09,06,08,36,16.70
2018,09,06,08,37,16.80
2018,09,06,08,38,17.00
2018,09,06,08,39,17.10
2018,09,06,08,40,17.30
2018,09,06,08,41,17.50
2018,09,06,08,42,17.60
2018,09,06,08,43,17.70
2018,09,06,08,44,17.90
2018,09,06,08,45,18.00
2018,09,06,08,46,18.10
2018,09,06,08,47,18.20
2018,09,06,08,48,18.30
2018,09,06,08,49,18.40
2018,09,06,08,50,18.40
2018,09,06,08,51,18.50
2018,09,06,08,52,18.60
2018,09,06,08,53,18.70
2018,09,06,08,54,18.80
2018,09,06,08,55,18.90
2018,09,06,08,56,19.00
2018,09,06,08,57,19.00
2018,09,06,08,58,19.10
2018,09,06,08,59,19.10
2018,09,06,09,00,19.10
2018,09,06,09,01,19.20
2018,09,06,09,02,19.20
2018,09,06,09,03,19.30
2018,09,06,09,04,19.30
2018,09,06,09,05,19.40
2018,09,06,09,06,19.40
2018,09,06,09,07,19.50
2018,09,06,09,08,19.60
2018,09,06,09,09,19.70
2018,09,06,09,10,19.70
2018,09,06,09,11,19.80
2018,09,06,09,12,19.90
2018,09,06,09,13,20.00
2018,09,06,09,14,20.10
2018,09,06,09,15,20.20
2018,09,06,09,16,20.30
2018,09,06,09,17,20.30
2018,09,06,09,18,20.50
2018,09,06,09,19,20.60
2018,09,06,09,20,20.70
2018,09,06,09,21,20.80
2018,09,06,09,22,20.90
2018,09,06,09,23,21.00
2018,09,06,09,24,21.10
2018,09,06,09,25,21.20
2018,09,06,09,26,21.30
2018,09,06,09,27,21.40
2018,09,06,09,28,21.40
2018,09,06,09,29,21.40
2018,09,06,09,30,21.50
2018,09,06,09,31,21.50
2018,09,06,09,32,21.50
2018,09,06,09,33,21.50
2018,09,06,09,34,21.50
2018,09,06,09,35,21.50
2018,09,06,09,36,21.50
2018,09,06,09,37,21.50
2018,09,06,09,38,21.50
2018,09,06,09,39,21.60
2018,09,06,09,40,21.60
2018,09,06,09,41,21.70
2018,09,06,09,42,21.80
2018,09,06,09,43,21.80
2018,09,06,09,44,21.90
2018,09,06,09,45,21.90
2018,09,06,09,46,22.00
2018,09,06,09,47,22.00
2018,09,06,09,48,22.10
2018,09,06,09,49,22.10
2018,09,06,09,50,22.20
2018,09,06,09,51,22.20
2018,09,06,09,52,22.30
2018,09,06,09,53,22.30
2018,09,06,09,54,22.40
2018,09,06,09,55,22.40
2018,09,06,09,56,22.40
2018,09,06,09,57,22.40
2018,09,06,09,58,22.50
2018,09,06,09,59,22.50
2018,09,06,10,00,22.50
2018,09,06,10,01,22.50
2018,09,06,10,02,22.50
2018,09,06,10,03,22.40
2018,09,06,10,04,22.40
2018,09,06,10,05,22.40
2018,09,06,10,06,22.40
2018,09,06,10,07,22.50
2018,09,06,10,08,22.60
2018,09,06,10,09,22.60
2018,09,06,10,10,22.70
2018,09,06,10,11,22.70
2018,09,06,10,12,22.70
2018,09,06,10,13,22.80
2018,09,06,10,14,22.80
2018,09,06,10,15,22.80
2018,09,06,10,16,22.90
2018,09,06,10,17,22.90
2018,09,06,10,18,23.00
2018,09,06,10,19,23.00
2018,09,06,10,20,23.10
2018,09,06,10,21,23.20
2018,09,06,10,22,23.20
2018,09,06,10,23,23.30
2018,09,06,10,24,23.30
2018,09,06,10,25,23.40
2018,09,06,10,26,23.40
2018,09,06,10,27,23.40
2018,09,06,10,28,23.40
2018,09,06,10,29,23.40
2018,09,06,10,30,23.40
2018,09,06,10,31,23.40
2018,09,06,10,32,23.50
2018,09,06,10,33,23.50
2018,09,06,10,34,23.50
2018,09,06,10,35,23.50
2018,09,06,10,36,23.40
2018,09,06,10,37,23.40
2018,09,06,10,38,23.30
2018,09,06,10,39,23.30
2018,09,06,10,40,23.20
2018,09,06,10,41,23.20
2018,09,06,10,42,23.20
2018,09,06,10,43,23.20
2018,09,06,10,44,23.20
2018,09,06,10,45,23.20
2018,09,06,10,46,23.30
2018,09,06,10,47,23.30
2018,09,06,10,48,23.30
2018,09,06,10,49,23.30
2018,09,06,10,50,23.40
2018,09,06,10,51,23.40
2018,09,06,10,52,23.40
2018,09,06,10,53,23.40
2018,09,06,10,54,23.40
2018,09,06,10,55,23.40
2018,09,06,10,56,23.50
2018,09,06,10,57,23.50
2018,09,06,10,58,23.60
2018,09,06,10,59,23.60
2018,09,06,11,00,23.60
2018,09,06,11,01,23.60
2018,09,06,11,02,23.60
2018,09,06,11,03,23.50
2018,09,06,11,04,23.50
2018,09,06,11,05,23.50
2018,09,06,11,06,23.50
2018,09,06,11,07,23.50
2018,09,06,11,08,23.40
2018,09,06,11,09,23.40
2018,09,06,11,10,23.40
2018,09,06,11,11,23.30
2018,09,06,11,12,23.30
2018,09,06,11,13,23.30
2018,09,06,11,14,23.30
2018,09,06,11,15,23.30
2018,09,06,11,16,23.30
2018,09,06,11,17,23.30
2018,09,06,11,18,23.30
2018,09,06,11,19,23.30
2018,09,06,11,20,23.30
2018,09,06,11,21,23.30
2018,09,06,11,22,23.30
2018,09,06,11,23,23.30
2018,09,06,11,24,23.30
2018,09,06,11,25,23.40
2018,09,06,11,26,23.40
2018,09,06,11,27,23.50
2018,09,06,11,28,23.50
2018,09,06,11,29,23.60
2018,09,06,11,30,23.60
2018,09,06,11,31,23.70
2018,09,06,11,32,23.70
2018,09,06,11,33,23.70
2018,09,06,11,34,23.80
2018,09,06,11,35,23.90
2018,09,06,11,36,23.90
2018,09,06,11,37,24.00
2018,09,06,11,38,24.10
2018,09,06,11,39,24.10
2018,09,06,11,40,24.10
2018,09,06,11,41,24.20
2018,09,06,11,42,24.20
2018,09,06,11,43,24.30
2018,09,06,11,44,24.30
2018,09,06,11,45,24.30
2018,09,06,11,46,24.30
2018,09,06,11,47,24.30
2018,09,06,11,48,24.20
2018,09,06,11,49,24.20
2018,09,06,11,50,24.10
2018,09,06,11,51,24.10
2018,09,06,11,52,24.10
2018,09,06,11,53,24.10
2018,09,06,11,54,24.10
2018,09,06,11,55,24.10
2018,09,06,11,56,24.10
2018,09,06,11,57,24.10
2018,09,06,11,58,24.20
2018,09,06,11,59,24.20
2018,09,06,12,00,24.20
2018,09,06,12,01,24.30
2018,09,06,12,02,24.30
2018,09,06,12,03,24.30
2018,09,06,12,04,24.30
2018,09,06,12,05,24.30
2018,09,06,12,06,24.30
2018,09,06,12,07,24.40
2018,09,06,12,08,24.40
2018,09,06,12,09,24.40
2018,09,06,12,10,24.40
2018,09,06,12,11,24.30
2018,09,06,12,12,24.30
2018,09,06,12,13,24.30
2018,09,06,12,14,24.30
2018,09,06,12,15,24.30
2018,09,06,12,16,24.30
2018,09,06,12,17,24.30
2018,09,06,12,18,24.30
2018,09,06,12,19,24.30
2018,09,06,12,20,24.30
2018,09,06,12,21,24.30
2018,09,06,12,22,24.30
2018,09,06,12,23,24.30
2018,09,06,12,24,24.30
2018,09,06,12,25,24.30
2018,09,06,12,26,24.20
2018,09,06,12,27,24.20
2018,09,06,12,28,24.20
2018,09,06,12,29,24.20
2018,09,06,12,30,24.20
2018,09,06,12,31,24.30
2018,09,06,12,32,24.30
2018,09,06,12,33,24.30
2018,09,06,12,34,24.30
2018,09,06,12,35,24.40
2018,09,06,12,36,24.40
2018,09,06,12,37,24.40
2018,09,06,12,38,24.40
2018,09,06,12,39,24.40
2018,09,06,12,40,24.50
2018,09,06,12,41,24.50
2018,09,06,12,42,24.60
2018,09,06,12,43,24.60
2018,09,06,12,44,24.60
2018,09,06,12,45,24.60
2018,09,06,12,46,24.60
2018,09,06,12,47,24.60
2018,09,06,12,48,24.70
2018,09,06,12,49,24.70
2018,09,06,12,50,24.70
2018,09,06,12,51,24.70
2018,09,06,12,52,24.70
2018,09,06,12,53,24.70
2018,09,06,12,54,24.70
2018,09,06,12,55,24.70
2018,09,06,12,56,24.70
2018,09,06,12,57,24.80
2018,09,06,12,58,24.80
2018,09,06,12,59,24.80
2018,09,06,13,00,24.80
2018,09,06,13,01,24.80
2018,09,06,13,02,24.80
2018,09,06,13,03,24.80
2018,09,06,13,04,24.80
2018,09,06,13,05,24.80
2018,09,06,13,06,24.80
2018,09,06,13,07,24.80
2018,09,06,13,08,24.80
2018,09,06,13,09,24.90
2018,09,06,13,10,24.90
2018,09,06,13,11,24.90
2018,09,06,13,12,25.00
2018,09,06,13,13,25.00
2018,09,06,13,14,25.00
2018,09,06,13,15,25.00
2018,09,06,13,16,25.00
2018,09,06,13,17,25.00
2018,09,06,13,18,25.00
2018,09,06,13,19,25.10
2018,09,06,13,20,25.10
2018,09,06,13,21,25.10
2018,09,06,13,22,25.10
2018,09,06,13,23,25.10
2018,09,06,13,24,25.10
2018,09,06,13,25,25.20
2018,09,06,13,26,25.20
2018,09,06,13,27,25.20
2018,09,06,13,28,25.20
2018,09,06,13,29,25.30
2018,09,06,13,30,25.30
2018,09,06,13,31,25.30
2018,09,06,13,32,25.30
2018,09,06,13,33,25.40
2018,09,06,13,34,25.40
2018,09,06,13,35,25.40
2018,09,06,13,36,25.50
2018,09,06,13,37,25.50
2018,09,06,13,38,25.50
2018,09,06,13,39,25.50
2018,09,06,13,40,25.50
2018,09,06,13,41,25.40
2018,09,06,13,42,25.40
2018,09,06,13,43,25.30
2018,09,06,13,44,25.30
2018,09,06,13,45,25.20
2018,09,06,13,46,25.20
2018,09,06,13,47,25.10
2018,09,06,13,48,25.10
2018,09,06,13,49,25.10
2018,09,06,13,50,25.10
2018,09,06,13,51,25.00
2018,09,06,13,52,25.00
2018,09,06,13,53,24.90
2018,09,06,13,54,24.80
2018,09,06,13,55,24.80
2018,09,06,13,56,24.70
2018,09,06,13,57,24.70
2018,09,06,13,58,24.70
2018,09,06,13,59,24.70
2018,09,06,14,00,24.60
2018,09,06,14,01,24.60
2018,09,06,14,02,24.60
2018,09,06,14,03,24.70
2018,09,06,14,04,24.70
2018,09,06,14,05,24.70
2018,09,06,14,06,24.80
2018,09,06,14,07,24.80
2018,09,06,14,08,24.80
2018,09,06,14,09,24.90
2018,09,06,14,10,24.90
2018,09,06,14,11,24.90
2018,09,06,14,12,24.90
2018,09,06,14,13,25.00
2018,09,06,14,14,25.00
2018,09,06,14,15,25.00
2018,09,06,14,16,25.00
2018,09,06,14,17,25.10
2018,09,06,14,18,25.10
2018,09,06,14,19,25.10
2018,09,06,14,20,25.10
2018,09,06,14,21,25.10
2018,09,06,14,22,25.10
2018,09,06,14,23,25.10
2018,09,06,14,24,25.10
2018,09,06,14,25,25.10
2018,09,06,14,26,25.10
2018,09,06,14,27,25.00
2018,09,06,14,28,25.00
2018,09,06,14,29,24.90
2018,09,06,14,30,24.90
2018,09,06,14,31,24.80
2018,09,06,14,32,24.80
2018,09,06,14,33,24.80
2018,09,06,14,34,24.80
2018,09,06,14,35,24.80
2018,09,06,14,36,24.80
2018,09,06,14,37,24.70
2018,09,06,14,38,24.70
2018,09,06,14,39,24.70
2018,09,06,14,40,24.70
2018,09,06,14,41,24.70
2018,09,06,14,42,24.70
2018,09,06,14,43,24.70
2018,09,06,14,44,24.70
2018,09,06,14,45,24.70
2018,09,06,14,46,24.70
2018,09,06,14,47,24.70
2018,09,06,14,48,24.80
2018,09,06,14,49,24.80
2018,09,06,14,50,24.90
2018,09,06,14,51,24.90
2018,09,06,14,52,25.00
2018,09,06,14,53,25.10
2018,09,06,14,54,25.10
2018,09,06,14,55,25.20
2018,09,06,14,56,25.30
2018,09,06,14,57,25.30
2018,09,06,14,58,25.40
2018,09,06,14,59,25.40
2018,09,06,15,00,25.50
2018,09,06,15,01,25.60
2018,09,06,15,02,25.60
2018,09,06,15,03,25.60
2018,09,06,15,04,25.60
2018,09,06,15,05,25.70
2018,09,06,15,06,25.70
2018,09,06,15,07,25.70
2018,09,06,15,08,25.70
2018,09,06,15,09,25.60
2018,09,06,15,10,25.60
2018,09,06,15,11,25.60
2018,09,06,15,12,25.60
2018,09,06,15,13,25.60
2018,09,06,15,14,25.70
2018,09,06,15,15,25.70
2018,09,06,15,16,25.70
2018,09,06,15,17,25.70
2018,09,06,15,18,25.70
2018,09,06,15,19,25.70
2018,09,06,15,20,25.70
2018,09,06,15,21,25.70
2018,09,06,15,22,25.80
2018,09,06,15,23,25.80
2018,09,06,15,24,25.90
2018,09,06,15,25,25.90
2018,09,06,15,26,25.90
2018,09,06,15,27,26.00
2018,09,06,15,28,26.00
2018,09,06,15,29,26.10
2018,09,06,15,30,26.10
2018,09,06,15,31,26.10
2018,09,06,15,32,26.20
2018,09,06,15,33,26.20
2018,09,06,15,34,26.20
2018,09,06,15,35,26.20
2018,09,06,15,36,26.20
2018,09,06,15,37,26.30
2018,09,06,15,38,26.30
2018,09,06,15,39,26.40
2018,09,06,15,40,26.40
2018,09,06,15,41,26.50
2018,09,06,15,42,26.50
2018,09,06,15,43,26.60
2018,09,06,15,44,26.60
2018,09,06,15,45,26.70
2018,09,06,15,46,26.70
2018,09,06,15,47,26.70
2018,09,06,15,48,26.80
2018,09,06,15,49,26.80
2018,09,06,15,50,26.80
2018,09,06,15,51,26.80
2018,09,06,15,52,26.90
2018,09,06,15,53,26.90
2018,09,06,15,54,26.90
2018,09,06,15,55,27.00
2018,09,06,15,56,27.00
2018,09,06,15,57,27.00
2018,09,06,15,58,27.00
2018,09,06,15,59,27.00
2018,09,06,16,00,26.90
2018,09,06,16,01,26.90
2018,09,06,16,02,26.90
2018,09,06,16,03,26.90
2018,09,06,16,04,26.90
2018,09,06,16,05,27.00
2018,09,06,16,06,27.00
2018,09,06,16,07,27.00
2018,09,06,16,08,27.00
2018,09,06,16,09,26.90
2018,09,06,16,10,26.90
2018,09,06,16,11,26.90
2018,09,06,16,12,26.90
2018,09,06,16,13,26.90
2018,09,06,16,14,26.90
2018,09,06,16,15,26.90
2018,09,06,16,16,26.90
2018,09,06,16,17,26.90
2018,09,06,16,18,26.90
2018,09,06,16,19,26.90
2018,09,06,16,20,26.90
2018,09,06,16,21,26.90
2018,09,06,16,22,26.90
2018,09,06,16,23,27.00
2018,09,06,16,24,27.00
2018,09,06,16,25,27.00
2018,09,06,16,26,27.10
2018,09,06,16,27,27.10
2018,09,06,16,28,27.10
2018,09,06,16,29,27.10
2018,09,06,16,30,27.10
2018,09,06,16,31,27.10
2018,09,06,16,32,27.20
2018,09,06,16,33,27.20
2018,09,06,16,34,27.20
2018,09,06,16,35,27.20
2018,09,06,16,36,27.20
2018,09,06,16,37,27.20
2018,09,06,16,38,27.20
2018,09,06,16,39,27.10
2018,09,06,16,40,27.00
2018,09,06,16,41,26.90
2018,09,06,16,42,26.90
2018,09,06,16,43,26.80
2018,09,06,16,44,26.80
2018,09,06,16,45,26.80
2018,09,06,16,46,26.80
2018,09,06,16,47,26.80
2018,09,06,16,48,26.70
2018,09,06,16,49,26.70
2018,09,06,16,50,26.70
2018,09,06,16,51,26.60
2018,09,06,16,52,26.60
2018,09,06,16,53,26.60
2018,09,06,16,54,26.60
2018,09,06,16,55,26.60
2018,09,06,16,56,26.60
2018,09,06,16,57,26.60
2018,09,06,16,58,26.60
2018,09,06,16,59,26.70
2018,09,06,17,00,26.70
2018,09,06,17,01,26.60
2018,09,06,17,02,26.60
2018,09,06,17,03,26.50
2018,09,06,17,04,26.40
2018,09,06,17,05,26.40
2018,09,06,17,06,26.30
2018,09,06,17,07,26.30
2018,09,06,17,08,26.20
2018,09,06,17,09,26.20
2018,09,06,17,10,26.20
2018,09,06,17,11,26.20
2018,09,06,17,12,26.10
2018,09,06,17,13,26.10
2018,09,06,17,14,26.10
2018,09,06,17,15,26.10
2018,09,06,17,16,26.10
2018,09,06,17,17,26.10
2018,09,06,17,18,26.10
2018,09,06,17,19,26.10
2018,09,06,17,20,26.10
2018,09,06,17,21,26.00